Location: Madden
(51.3728°N, 114.3297°W)
Time: 17:05:32
(UTC+00:00)

CUTE-I - Pass Details

Date: 08 December 2023
Orbit: 807 x 823 km, 98.7° (Epoch: 03 March)

Event Time Altitude Azimuth Distance (km) Brightness Sun altitude
Rises 12:31:03 0° 28° (NNE) 3,366 ? -26.5°
Reaches altitude 10° 12:34:31 10° 51° (NE) 2,429 ? -26.0°
Maximum altitude 12:37:32 15° 86° (E) 2,089 ? -25.5°
Drops below altitude 10° 12:40:33 10° 121° (ESE) 2,423 ? -25.0°
Sets 12:43:59 0° 144° (SE) 3,350 ? -24.5°
